Content
SEND FEEDBACK

Daily
Averages
Monthly
Summary
Austria

INNSBRUCK, AUSTRIA


Home > Europe > Austria
Elevation: 1994 feet     Latitude: 47 15N     Longitude: 011 20E

WEATHER
 
SELECT A DAY
Number of Records: 311,614;   Date Range: 7/1/96 - 9/15/14
 
SHARE

PRINT THIS DATA

[ ← Previous Day ]
WEATHER ALMANAC - SEPTEMBER 8, 2013
[ Next Day → ]
[ °C ]   °F
Weather ElementAverageHighLow
Temperature67.6 °F75.2 °F (12:50 pm)60.8 °F (5:50 am)
Dewpoint58.4 °F60.8 °F (1:50 am)55.4 °F (6:50 pm)
Humidity72.8 %94 % (5:50 am)46 % (5:00 pm)
Barometer30.04 in30.06 in (6:50 am)29.96 in (5:00 pm)
Wind Speed9 mph17.3 mph (2:20 pm)
Wind Gust21.9 mph (1:50 pm)
Weather ElementAverage
Visibility8.9 mi
Wind DirectionSSE (149.8 °)

Weather ElementTotal
Precipitation---
Cooling Degree Days3 (Base 65)
Growing Degree Days18 (Base 50)
Averaged from 55 records on September 8, 2013
WEATHER CONDITIONS BREAKOUT
WIND DIRECTION BREAKOUT
WEATHER BY HOUR - SEPTEMBER 8, 2013
[ °C ]   °F
Local TimeTemperatureDewpointHumidityBarometerVisibilityWind DirectionWind SpeedGust SpeedPrecipitationEventsConditions
12:50 AM68.0 °F59.0 °F73 %30.04 in6.2 miEast (90°)11.5 mphPartly Cloudy
1:20 AM68.0 °F59.0 °F73 %30.04 in6.2 miEast (80°)9.2 mphPartly Cloudy
1:50 AM64.4 °F60.8 °F88 %30.04 in6.2 miWest (260°)10.4 mphPartly Cloudy
2:00 AM65.0 °F60.0 °F79 %30.00 in19.0 miWest (260°)11.2 mph
2:20 AM64.4 °F59.0 °F83 %30.04 in6.2 miWSW (250°)4.6 mphScattered Clouds
2:50 AM62.6 °F59.0 °F88 %30.04 in6.2 miWest (280°)5.8 mphPartly Cloudy
3:20 AM62.6 °F59.0 °F88 %30.04 in6.2 miWest (270°)8.1 mphPartly Cloudy
3:50 AM62.6 °F59.0 °F88 %30.04 in6.2 miVariable4.6 mphScattered Clouds
4:20 AM64.4 °F59.0 °F83 %30.04 in6.2 miWSW (250°)9.2 mphScattered Clouds
4:50 AM62.6 °F59.0 °F88 %30.04 in6.2 miWest (270°)8.1 mphMostly Cloudy
5:00 AM63.0 °F59.0 °F83 %30.01 in19.0 miWest (270°)8.9 mphScattered Clouds
5:20 AM62.6 °F59.0 °F88 %30.04 in6.2 miVariable4.6 mphMostly Cloudy
5:50 AM60.8 °F59.0 °F94 %30.04 in6.2 miWest (270°)5.8 mphMostly Cloudy
6:20 AM60.8 °F59.0 °F94 %30.04 in6.2 miWest (280°)8.1 mphMostly Cloudy
6:50 AM60.8 °F59.0 °F94 %30.06 in6.2 miWest (280°)6.9 mphMostly Cloudy
7:20 AM60.8 °F57.2 °F88 %30.06 in6.2 miWSW (240°)5.8 mphMostly Cloudy
7:50 AM62.6 °F59.0 °F88 %30.06 in6.2 miWest (280°)5.8 mphMostly Cloudy
8:00 AM62.0 °F58.0 °F84 %30.03 in25.0 miWest (280°)6.7 mphScattered Clouds
8:20 AM62.6 °F59.0 °F88 %30.06 in6.2 miWSW (250°)4.6 mphScattered Clouds
8:50 AM64.4 °F59.0 °F83 %30.06 in6.2 miWest (270°)9.2 mphScattered Clouds
9:20 AM64.4 °F59.0 °F83 %30.06 in6.2 miWest (270°)8.1 mphScattered Clouds
9:50 AM68.0 °F60.8 °F78 %30.06 in6.2 miWest (280°)8.1 mphScattered Clouds
10:20 AM71.6 °F60.8 °F69 %30.06 in6.2 miVariable2.3 mphScattered Clouds
10:50 AM71.6 °F59.0 °F64 %30.06 in6.2 miEast (90°)6.9 mphScattered Clouds
11:00 AM71.0 °F58.0 °F56 %30.01 in31.0 miEast (90°)6.7 mphScattered Clouds
11:20 AM71.6 °F59.0 °F64 %30.06 in6.2 miENE (70°)11.5 mphMostly Cloudy
11:50 AM73.4 °F57.2 °F57 %30.06 in6.2 miEast (80°)12.7 mphScattered Clouds
12:20 PM73.4 °F57.2 °F57 %30.06 in6.2 miENE (70°)11.5 mphMostly Cloudy
12:50 PM75.2 °F57.2 °F53 %30.06 in6.2 miEast (80°)13.8 mphMostly Cloudy
1:20 PM75.2 °F57.2 °F53 %30.06 in6.2 miENE (60°)15.0 mphMostly Cloudy
1:50 PM73.4 °F59.0 °F61 %30.06 in6.2 miEast (80°)10.4 mph21.9 mphMostly Cloudy
2:00 PM73.0 °F58.0 °F51 %29.99 in31.0 miEast (80°)11.2 mphScattered Clouds
2:20 PM73.4 °F59.0 °F61 %30.06 in6.2 miENE (60°)17.3 mphMostly Cloudy
2:50 PM75.2 °F59.0 °F57 %30.04 in6.2 miENE (70°)15.0 mphMostly Cloudy
3:20 PM75.2 °F59.0 °F57 %30.04 in6.2 miENE (60°)17.3 mphMostly Cloudy
3:50 PM73.4 °F57.2 °F57 %30.04 in6.2 miENE (70°)17.3 mphMostly Cloudy
4:20 PM73.4 °F57.2 °F57 %30.04 in6.2 miEast (80°)13.8 mphScattered Clouds
4:50 PM73.4 °F57.2 °F57 %30.04 in6.2 miNE (50°)15.0 mphScattered Clouds
5:00 PM73.0 °F57.0 °F46 %29.96 in31.0 miNE (50°)15.7 mphScattered Clouds
5:20 PM73.4 °F57.2 °F57 %30.04 in6.2 miENE (70°)12.7 mphMostly Cloudy
5:50 PM71.6 °F57.2 °F60 %30.04 in6.2 miENE (60°)15.0 mphMostly Cloudy
6:20 PM71.6 °F57.2 °F60 %30.04 in6.2 miENE (70°)11.5 mphMostly Cloudy
6:50 PM71.6 °F55.4 °F57 %30.01 in6.2 miEast (90°)9.2 mphMostly Cloudy
7:20 PM69.8 °F55.4 °F60 %30.04 in6.2 miENE (70°)11.5 mphMostly Cloudy
7:50 PM69.8 °F57.2 °F64 %30.04 in6.2 miENE (60°)11.5 mphMostly Cloudy
8:00 PM69.0 °F56.0 °F55 %29.97 in31.0 miENE (60°)11.2 mphScattered Clouds
8:20 PM68.0 °F57.2 °F68 %30.04 in6.2 miENE (60°)6.9 mphRainLight Rain Showers
8:50 PM66.2 °F60.8 °F83 %30.04 in6.2 miWest (270°)3.5 mphMostly Cloudy
9:20 PM66.2 °F59.0 °F78 %30.04 in6.2 miWSW (240°)4.6 mphMostly Cloudy
9:50 PM64.4 °F59.0 °F83 %30.04 in6.2 miWest (280°)4.6 mphRainLight Rain Showers
10:20 PM62.6 °F59.0 °F88 %30.04 in6.2 miWSW (250°)3.5 mphMostly Cloudy
10:50 PM62.6 °F59.0 °F88 %30.04 in6.2 miWest (270°)3.5 mphMostly Cloudy
11:00 PM63.0 °F58.0 °F80 %30.00 in9.0 miWest (270°)4.5 mphPartly Cloudy
11:20 PM62.6 °F57.2 °F82 %30.04 in6.2 miVariable2.3 mphMostly Cloudy
11:50 PM60.8 °F57.2 °F88 %30.04 in6.2 miVariable2.3 mphMostly Cloudy
Hourly data recorded from LOWI, located miles away from Innsbruck, Austria







STORIES FROM OUR PARTNERS